Location: ????????
(52.3000°N, 54.5000°E)
Time: 13:23:39
(UTC+00:00)

Daily predictions for brighter satellites

Satellite Brightness Start Highest point End
(mag) Time Altitude Azimuth Time Altitude Azimuth Time Altitude Azimuth
Meteor 1-11 Rocket 4.2 16:46:04 10° N 16:51:55 52° ENE 16:57:38 10° SSE
Cosmos 2315 Rocket 4.2 16:49:06 10° S 16:55:30 87° W 17:01:55 10° N
MetOp-B 4.2 16:50:16 10° SSE 16:55:36 76° ENE 17:00:59 10° NNW
Terra 3.2 16:55:18 10° ESE 16:59:15 27° ENE 17:03:13 10° N
ERS-2 4.2 16:55:57 10° N 16:59:15 33° WNW 17:02:31 10° SW
Cosmos 1437 3.4 16:59:50 10° SSW 17:02:36 51° WNW 17:05:24 10° N
Cosmos 2082 Rocket 2.4 17:00:05 10° NNW 17:05:43 76° WSW 17:11:20 10° SSE
Cosmos 2112 Rocket 4.4 17:01:02 10° NNW 17:06:19 57° ENE 17:11:35 10° SE
Cosmos 1515 Rocket 3.5 17:02:52 10° S 17:07:15 77° E 17:11:38 10° NNE
Cosmos 2228 Rocket 3.7 17:05:14 10° SSE 17:09:20 38° E 17:13:31 10° NNE
Cosmos 1340 Rocket 3.9 17:06:13 10° N 17:09:56 33° ENE 17:13:34 10° SE
Cosmos 1869 Rocket 3.9 17:06:11 10° N 17:10:24 49° ENE 17:14:37 10° SSE
BREEZE-M R/B 2.0 17:09:20 10° WSW 17:11:46 47° S 17:14:16 10° E
SPOT 1/Viking Rocket 3.6 17:07:25 10° SSE 17:12:38 83° ENE 17:17:50 10° NNW
Resurs 01 Rocket 2.3 17:08:23 10° S 17:12:45 56° W 17:17:08 10° NNW
ERS-1 Rocket 3.5 17:09:38 10° SE 17:14:26 48° ENE 17:19:17 10° N
Cosmos 1943 Rocket 3.3 17:13:01 10° SSE 17:17:21 23° ESE 17:21:41 10° NE
Meteor 1-10 Rocket 4.3 17:13:29 10° S 17:19:02 67° E 17:24:45 10° NNE
Spot 2 Rocket 3.5 17:15:16 10° SSE 17:20:18 75° ENE 17:25:21 10° NNW
Tianhe-1 3.3 17:20:31 10° S 17:20:57 10° SSE 17:21:07 10° SSE
SPOT 5 3.3 17:24:00 11° SSE 17:28:57 61° ENE 17:34:15 10° N
SPOT 3 Rocket 4.3 17:24:06 10° S 17:29:05 49° W 17:34:06 10° NNW
CZ-2C R/B 3.7 17:25:07 10° NNE 17:29:40 81° ESE 17:34:15 10° SSW
Cosmos 1680 Rocket 3.6 17:26:34 10° NNW 17:31:56 87° WSW 17:36:52 12° SSE
CARTOSAT-1 3.5 17:28:13 11° SSE 17:32:23 81° ENE 17:36:44 10° NNW
Cosmos 2278 Rocket 2.6 17:27:33 10° SW 17:33:12 71° WNW 17:38:53 10° NNE
Cosmos 1536 2.8 17:29:41 10° N 17:33:45 72° ENE 17:37:18 13° SSE
ERBS 2.3 17:33:41 10° WNW 17:36:58 67° SSW 17:39:27 16° SE
Cosmos 1238 Rocket 4.5 17:31:50 10° N 17:37:25 38° ENE 17:41:28 14° SE
Cosmos 2369 Rocket 3.6 17:35:20 13° SE 17:38:17 19° E 17:42:07 10° ENE
Cosmos 1271 Rocket 3.0 17:36:43 10° SSW 17:40:42 75° WNW 17:44:44 10° N
Cosmos 2084 Rocket 3.7 17:40:15 10° NW 17:44:27 63° SW 17:47:50 16° SSE
SJ 16-02 2.1 17:41:17 10° SW 17:45:40 57° WNW 17:50:05 10° NNE
ISS -3.2 17:46:52 10° SW 17:50:01 36° SSE 17:53:09 10° E
Cosmos 1544 3.0 17:46:23 10° N 17:50:02 80° E 17:52:45 17° SSE
Cosmos 1975 4.3 17:48:06 10° N 17:51:27 25° ENE 17:53:55 15° ESE
ATLAS 2AS CENTAUR R/B 3.2 17:46:44 10° NW 17:53:57 57° SW 17:59:38 15° SSE
Cosmos 1733 Rocket 3.5 17:51:06 10° N 17:55:18 48° ENE 17:58:14 18° SE
USA 215 3.9 17:49:12 10° ENE 17:55:37 60° N 18:02:02 10° W
JB-3 4.2 17:52:35 10° NNE 17:56:29 83° ESE 18:00:17 10° SSW
ARIANE 5 R/B 3.1 17:55:10 11° S 17:59:09 54° W 18:03:26 10° NNW
Iridium 4 Rocket 4.2 17:54:45 10° SSW 18:00:36 64° W 18:06:28 10° N
RESURS DK-1 3.4 17:58:56 10° NNW 18:02:54 39° NE 18:05:58 15° ESE
Cosmos 2154 Rocket 4.3 17:59:07 10° NNW 18:05:24 68° W 18:11:23 11° S
Cosmos 990 Rocket 4.0 18:00:15 10° SSW 18:05:29 85° ESE 18:10:48 10° NNE
Meteor 1-27 Rocket 3.9 18:01:19 10° SSW 18:07:12 85° WNW 18:13:12 10° NNE
Cosmos 1898 Rocket 3.5 18:02:44 10° SSW 18:08:02 75° ESE 18:13:24 10° NNE
SL-27 R/B 4.3 18:07:53 10° N 18:10:28 20° NE 18:12:32 13° E
Cosmos 962 Rocket 4.5 18:04:23 10° N 18:10:33 85° E 18:15:25 17° S
Cosmos 1818 4.0 18:08:22 10° NW 18:13:44 55° SW 18:17:30 19° SSE
Nadezhda 1 Rocket 4.1 18:07:36 10° SSW 18:13:54 78° W 18:20:07 10° N
Cosmos 44 4.5 18:10:30 10° NW 18:15:27 37° WSW 18:19:06 16° S
BREEZE-M DEB (TANK) 3.0 18:09:05 10° W 18:16:50 87° N 18:19:27 10° E
CZ-4B DEB 4.4 18:15:21 24° S 18:17:09 72° W 18:20:22 10° NNW
Meteor 1-19 Rocket 4.5 18:18:37 20° SSE 18:22:07 49° E 18:27:21 10° NNE
Cosmos 2344 4.4 18:15:25 10° NW 18:23:56 68° NE 18:35:39 10° ESE
Cosmos 1743 3.2 18:22:40 10° NNW 18:26:28 56° W 18:28:59 20° SSW
Meteor 2-4 Rocket 4.5 18:26:53 21° SE 18:29:58 36° E 18:34:59 10° NNE
Cosmos 967 Rocket 4.4 18:27:10 10° SW 18:33:26 85° SE 18:39:46 10° NE
Cosmos 44 Rocket 4.0 18:29:33 10° NW 18:34:43 54° NE 18:38:50 15° ESE
H-2A R/B 3.4 18:32:17 10° NNE 18:36:30 87° WNW 18:39:29 19° SSW
Terra 2.4 18:33:23 18° S 18:36:46 52° W 18:41:26 10° NNW
Cosmos 2297 3.8 18:32:09 10° SSW 18:37:51 81° WNW 18:43:34 10° NNE
Cosmos 1833 4.4 18:32:52 10° NNW 18:38:39 69° NE 18:42:33 21° SE
Cosmos 1607 4.5 18:38:35 19° S 18:42:43 42° ESE 18:48:45 10° NE
Cosmos 1461 3.0 18:39:05 10° SW 18:43:47 76° SE 18:48:23 10° NE
Okean 1-7 4.1 18:42:51 23° SE 18:44:23 30° E 18:48:08 10° NNE
Cosmos 2366 rocket 4.0 18:39:16 10° N 18:45:30 87° E 18:49:37 23° S
Cosmos 1862 Rocket 3.4 18:43:34 24° S 18:46:07 82° E 18:50:27 10° NNE
Cosmos 1340 Rocket 4.4 18:42:47 10° NNW 18:46:19 28° W 18:49:10 14° SW
Cosmos 1782 Rocket 4.5 18:43:22 10° N 18:47:33 38° ENE 18:49:43 23° SE
Cosmos 1703 Rocket 4.5 18:45:59 25° SE 18:47:40 34° E 18:51:39 10° NNE
Cosmos 2082 Rocket 4.4 18:45:53 10° WNW 18:48:51 15° W 18:51:50 10° SW
Cosmos 2181 Rocket 3.9 18:46:37 20° S 18:51:01 81° E 18:57:11 10° NNE
Okean 1 3.4 18:49:41 23° SSW 18:52:06 74° W 18:56:06 10° N
ERS-1 Rocket 4.4 18:49:27 12° SSW 18:53:26 30° W 18:57:51 10° NNW
ATLAS CENTAUR R/B 1.9 18:58:04 31° SE 18:58:12 31° ESE 19:01:37 10° ENE
Cosmos 1943 Rocket 2.4 18:54:57 10° SW 19:00:35 73° WNW 19:06:12 10° NNE
Cosmos 1937 Rocket 4.0 18:57:44 10° SW 19:02:49 59° WNW 19:07:59 10° NNE
COSMOS 2487 4.3 19:01:50 10° N 19:04:38 23° NE 19:06:18 16° E
DNEPR-1 R/B 4.2 19:00:57 10° SW 19:06:36 70° NW 19:11:20 10° NE
Cosmos 1656 Rocket 3.8 19:07:29 27° S 19:10:20 55° ESE 19:15:46 10° NE
Cosmos 1867 3.6 19:07:31 21° SSW 19:11:08 61° SE 19:16:33 10° NE
Cosmos 2098 4.1 19:11:27 10° N 19:14:27 88° W 19:15:05 54° S
Spot 4 3.8 19:12:22 31° SSE 19:14:46 89° E 19:19:40 10° NNW
Cosmos 2218 Rocket 4.4 19:08:45 10° NNW 19:14:57 60° W 19:19:04 22° SSW
Cosmos 1048 Rocket 4.1 19:14:28 10° NNW 19:19:46 66° WSW 19:22:18 30° S
Cosmos 2369 Rocket 2.2 19:17:03 16° SSW 19:21:34 87° WNW 19:27:17 10° NNE
NOSS 2-1 (E) 4.1 19:16:59 10° NW 19:21:36 80° NE 19:26:08 20° SE
SJ 16-02 4.5 19:23:24 10° WNW 19:25:16 12° NW 19:27:08 10° NNW
ISS -3.9 19:23:15 10° W 19:26:38 79° S 19:30:01 10° E
Cosmos 1975 3.9 19:24:20 10° NNW 19:28:00 36° W 19:29:39 25° SW
Cosmos 1733 4.3 19:29:08 10° N 19:32:39 35° ENE 19:33:59 26° ESE
BREEZE-M R/B 4.5 19:31:05 10° WSW 19:31:24 12° WSW 19:31:24 12° WSW
Nadezhda 3 Rocket 4.1 19:30:20 28° SSE 19:33:40 66° E 19:39:48 10° NNE
ALOS 2 2.6 19:32:57 36° SSE 19:34:43 81° ENE 19:39:09 10° NNW
Lacrosse 5 2.8 19:36:00 28° SE 19:36:19 29° SE 19:40:40 10° ENE
USA 215 3.5 19:31:51 10° E 19:38:21 72° NNE 19:44:52 10° WNW
Cosmos 1269 Rocket 4.3 19:34:07 10° NNW 19:39:25 65° ENE 19:42:21 26° SE
Okean 3 3.7 19:38:45 38° SSE 19:40:04 57° E 19:44:13 10° NNE
RESURS DK-1 3.5 19:37:08 10° NW 19:40:51 31° WSW 19:41:51 27° SW
Meteor 1-12 Rocket 4.3 19:37:48 10° NNW 19:43:41 83° W 19:46:36 31° S
Cosmos 1356 Rocket 3.4 19:39:36 10° NNW 19:43:56 83° W 19:45:26 40° S
SL-27 R/B 3.1 19:42:32 10° NW 19:45:39 37° WSW 19:46:02 35° SW
Cosmos 1300 Rocket 3.7 19:42:47 10° N 19:47:10 63° ENE 19:48:50 35° SE
COSMOS 2455 3.3 19:44:29 10° NW 19:50:28 60° NE 19:55:34 14° ESE
Cosmos 2298 Rocket 4.1 19:48:59 25° SSW 19:52:10 79° WNW 19:57:30 10° NNE
Thor Agena Rocket 4.2 19:47:22 10° NNE 19:52:23 42° E 19:54:30 29° SSE
Sich 1 Rocket 3.6 19:55:28 10° N 20:00:02 89° W 20:01:42 39° S
Cosmos 1066 Rocket 4.2 19:58:44 32° S 20:01:28 74° E 20:07:03 10° NNE
Meteor 1-15 Rocket 4.2 19:56:23 10° NNW 20:02:09 88° E 20:05:03 31° SSE
Cosmos 1805 3.1 20:03:01 10° NNW 20:06:57 84° W 20:07:58 48° S
NOSS 2-1 (C) 4.3 20:03:15 10° NW 20:07:54 54° SW 20:10:40 31° SSE
Cosmos 2227 Rocket 3.3 20:03:03 10° NNW 20:08:23 40° NE 20:13:41 10° ESE
COBE Rocket 4.1 20:07:15 34° S 20:09:27 65° W 20:14:38 10° NNW
Cosmos 1726 3.9 20:07:03 10° NNE 20:10:11 25° ENE 20:11:50 18° ESE
Cosmos 2297 Rocket 3.0 20:05:11 10° NNW 20:10:43 50° NE 20:15:37 13° SE
Okean 2 Rocket 3.0 20:07:26 10° N 20:11:53 85° E 20:13:26 40° SSE
Cosmos 2151 Rocket 3.7 20:09:20 10° N 20:13:52 72° ENE 20:15:37 36° SSE
Cosmos 1378 3.5 20:12:52 38° SW 20:13:58 55° WNW 20:17:38 10° N
NOSS 2-1 (D) 4.5 20:10:10 10° NW 20:14:48 49° SW 20:17:20 31° S
Cosmos 44 Rocket 4.2 20:11:23 10° NW 20:16:10 37° WSW 20:17:31 31° SSW
PSLV R/B 4.3 20:15:29 10° NNE 20:19:35 40° E 20:20:53 31° SE
MTI 3.7 20:16:50 10° N 20:19:50 63° WNW 20:20:08 58° WSW
Cosmos 1934 Rocket 4.0 20:15:14 10° NNW 20:21:21 73° W 20:24:26 31° S
Okean 1-7 4.3 20:19:41 21° WSW 20:21:53 34° WNW 20:25:50 10° N
Cosmos 1766 3.2 20:21:17 10° NNW 20:25:16 78° W 20:26:17 47° S
SAR-Lupe-2 3.9 20:22:23 10° N 20:25:56 58° WNW 20:26:56 40° SW
Cosmos 1125 Rocket 3.9 20:24:04 22° SW 20:27:21 57° WNW 20:32:31 10° NNE
ATLAS CENTAUR R/B 2.3 20:34:10 15° WSW 20:36:59 40° NW 20:40:41 10° NE
Meteor 2-10 4.1 20:31:38 10° N 20:37:00 74° ENE 20:39:41 29° SSE
COSMOS 2487 3.3 20:36:27 10° NW 20:39:33 33° WSW 20:39:36 33° WSW
Cosmos 1378 Rocket 3.9 20:39:14 35° SSE 20:40:43 54° E 20:44:57 10° NNE
Meteor 1-23 Rocket 4.3 20:38:48 30° SSW 20:41:50 78° WNW 20:47:42 10° N
Cosmos 1470 3.0 20:41:02 10° N 20:44:58 64° ENE 20:46:23 36° SE
Cosmos 1943 Rocket 4.4 20:41:03 10° W 20:45:19 22° NNW 20:49:35 10° NNE
YAOGAN 11 4.5 20:47:49 26° SE 20:50:02 59° ENE 20:54:17 10° N
Resurs 1-4 Rocket 3.9 20:51:49 10° NE 20:55:49 21° E 20:59:15 12° SE
Cosmos 2263 Rocket 4.4 20:53:45 10° NNW 20:58:24 25° NE 21:03:04 10° E
CZ-2D R/B 3.9 20:54:19 10° NE 20:58:29 22° E 21:02:01 12° SE
Cosmos 1842 3.1 20:58:28 44° SSW 20:59:37 86° WNW 21:03:32 10° N
Cosmos 2219 3.2 20:53:55 10° NNW 20:59:40 87° ENE 21:03:49 20° SSE
Lacrosse 4 Rocket 3.6 21:01:37 14° SE 21:03:03 16° ESE 21:05:42 10° ENE
Cosmos 1727 Rocket 4.1 20:59:33 27° S 21:03:10 74° E 21:09:32 10° NNE
ISS -3.9 21:00:01 10° W 21:03:23 63° SSW 21:06:44 10° ESE
APEX 4.4 20:59:33 10° NNW 21:03:48 56° NE 21:09:06 10° SE
Cosmos 2221 Rocket 4.3 21:02:33 28° SW 21:04:33 47° WNW 21:08:59 10° N
Okean 1 Rocket 3.0 21:01:04 10° NNW 21:05:27 73° W 21:07:07 37° S
Cosmos 2369 Rocket 4.2 21:01:48 10° W 21:06:24 25° NW 21:11:03 10° NNE
SL-24 R/B 4.0 21:05:05 34° S 21:06:58 83° WSW 21:11:13 10° NNW
Cosmos 614 Rocket 4.0 21:02:00 10° NNW 21:07:08 77° ENE 21:10:40 20° SSE
CZ-3B R/B 4.5 20:40:05 10° SW 21:07:42 55° SSE 21:13:32 10° ENE
EO 1 Del DPAF 3.1 21:05:42 10° NNE 21:09:26 77° WNW 21:10:36 42° SSW
Cosmos 1400 Rocket 3.4 21:05:40 10° NNW 21:09:35 45° W 21:10:40 35° SW
SeaSat 1 2.6 21:05:14 10° NE 21:10:09 63° ESE 21:12:25 31° S
Cosmos 1674 Rocket 3.7 21:09:48 34° SSW 21:11:38 68° WNW 21:16:07 10° N
MOZ.5/SAFIR/RUBIN 5/SL-8 4.0 21:11:06 22° SSE 21:14:03 65° ENE 21:18:40 10° N
Cosmos 1140 Rocket 4.4 21:09:45 10° NNW 21:14:49 48° ENE 21:19:53 10° SE
USA 281 3.4 21:09:12 10° SE 21:15:43 74° ENE 21:22:18 10° NNW
Cosmos 1758 3.3 21:12:15 10° N 21:16:23 89° W 21:18:03 35° S
Lacrosse 5 1.8 21:15:08 19° WSW 21:18:54 88° NNW 21:24:01 10° ENE
Cosmos 1315 Rocket 2.8 21:15:38 10° NNW 21:19:40 82° ENE 21:21:29 32° SSE
USA 215 3.2 21:15:04 10° SE 21:21:31 60° SW 21:28:00 10° WNW
SL-16 R/B 3.0 21:18:37 10° SE 21:24:45 61° ENE 21:30:55 10° NNW
Cosmos 1459 Rocket 4.0 21:18:45 10° N 21:25:04 86° E 21:29:19 21° S
Cosmos 1707 2.7 21:23:45 38° S 21:25:08 79° E 21:29:00 10° NNE
Cosmos 2251 Rocket 3.5 21:21:29 10° NNW 21:26:41 62° WSW 21:29:29 27° S
Cosmos 1697 Rocket 3.6 21:26:13 21° SSE 21:29:18 38° ESE 21:34:26 10° NE
Cosmos 1544 Rocket 4.4 21:26:39 10° N 21:30:55 46° ENE 21:34:26 15° SE
USA 276 2.2 21:31:35 51° S 21:31:43 52° S 21:34:50 10° E
UNK 4.4 21:27:58 13° SE 21:31:52 51° ENE 21:36:19 10° N
Helios 1A 3.0 21:30:19 33° S 21:31:59 61° WSW 21:36:07 10° NNW
Cosmos 1908 3.8 21:30:32 10° N 21:34:23 55° ENE 21:36:51 21° SSE
COSMOS 2455 3.5 21:30:46 10° NW 21:36:11 35° WSW 21:38:40 25° SSW
Meteor 1-16 Rocket 4.4 21:30:41 10° N 21:36:38 77° ENE 21:41:19 16° SSE
Cosmos 2016 Rocket 4.1 21:32:42 10° N 21:39:00 77° ENE 21:44:02 16° SSE
Cosmos 1455 Rocket 3.0 21:36:19 10° N 21:40:41 87° ENE 21:43:14 25° SSE
Cosmos 1980 Rocket 3.7 21:39:29 14° SSE 21:43:18 27° ESE 21:48:00 10° NE
Timation 1 Rocket 4.3 21:37:58 10° NW 21:43:57 72° WSW 21:49:13 14° SSE
Cosmos 2173 Rocket 4.0 21:38:28 10° NNW 21:44:38 71° W 21:48:51 22° S
Cosmos 1726 3.1 21:42:04 10° NNW 21:45:22 31° W 21:46:16 27° WSW
Okean 2 4.1 21:44:57 26° SW 21:46:50 42° WNW 21:50:49 10° N
Cosmos 1190 Rocket 4.2 21:44:51 10° NNW 21:50:05 74° ENE 21:55:20 10° SSE
Cosmos 2227 Rocket 2.5 21:47:09 10° NW 21:52:35 48° WSW 21:55:58 22° S
Cosmos 2297 Rocket 2.8 21:49:29 10° NW 21:54:39 37° WSW 21:57:23 23° SSW
In-Cosmos 22 4.1 21:52:06 24° SSW 21:55:36 88° WNW 22:01:05 10° NNE
Cosmos 2061 Rocket 4.0 21:54:29 10° NNW 22:00:52 83° W 22:06:11 16° S
Timation 2 Rocket 4.4 21:55:55 10° NW 22:01:27 40° WSW 22:04:59 21° SSW
Cosmos 1656 3.7 21:59:06 22° SW 22:02:40 77° WNW 22:08:16 10° NNE
Cosmos 1674 2.6 22:02:00 27° S 22:03:59 87° E 22:07:50 10° NNE
GP-B 4.2 22:04:38 10° NNE 22:08:53 42° E 22:13:05 10° SSE
Cosmos 407 Rocket 3.6 22:04:22 10° NNW 22:09:41 65° WSW 22:14:21 13° S
Cosmos 2369 4.1 22:06:13 19° S 22:10:10 56° ESE 22:15:47 10° NE
Cosmos 2082 3.7 22:04:35 10° NW 22:10:13 63° WSW 22:15:52 10° SSE
Cosmos 1626 2.5 22:08:14 21° S 22:10:30 57° E 22:14:08 10° NNE
Cosmos 1953 2.6 22:08:53 10° NNW 22:12:46 50° W 22:14:51 24° SSW
Cosmos 676 Rocket 4.2 22:09:22 10° NNW 22:14:38 73° ENE 22:19:56 10° SSE
ADEOS II 3.0 22:11:42 10° NNE 22:16:45 44° E 22:21:34 11° S
ATLAS CENTAUR R/B 4.0 22:14:22 10° NW 22:16:50 16° NNW 22:19:24 10° NNE
Cosmos 1975 Rocket 3.4 22:17:07 23° SW 22:19:39 52° WNW 22:23:54 10° N
Aureole 2 Rocket 2.7 22:17:31 10° NNW 22:20:08 47° ENE 22:22:44 10° SE
Helios 1B rocket 2.4 22:16:29 10° NNE 22:20:39 85° ESE 22:23:25 20° SSW
ARGOS Delta rocket 4.2 22:16:02 10° NNE 22:20:42 61° E 22:24:49 14° S
Cosmos 371 Rocket 3.7 22:17:33 20° SW 22:20:49 57° WNW 22:25:41 10° NNE
SL-16 R/B 4.4 22:19:08 10° SE 22:22:40 17° E 22:26:13 10° ENE
Cosmos 1802 Rocket 4.4 22:18:05 10° NNW 22:23:56 47° W 22:28:19 17° SSW
Cosmos 332 Rocket 3.8 22:23:32 20° SSW 22:26:53 75° WNW 22:31:46 10° NNE
Cosmos 2123 Rocket 4.0 22:22:45 18° SSW 22:27:33 76° WNW 22:33:49 10° N
Cosmos 1624 Rocket 4.4 22:24:04 16° S 22:28:13 61° ESE 22:33:30 10° NNE
Cosmos 1025 Rocket 3.1 22:30:25 19° SSW 22:33:28 70° WNW 22:37:52 10° N
Resurs 1-4 Rocket 2.2 22:30:55 10° NNE 22:36:10 70° WNW 22:40:20 16° SSW
Cosmos 1300 2.6 22:33:01 10° N 22:36:52 90° S 22:40:37 10° S
Cosmos 2084 3.9 22:32:39 10° NW 22:37:03 70° NE 22:41:34 10° SE
Meteor 1-29 3.0 22:35:24 10° NNE 22:38:48 74° ESE 22:41:21 17° S
BREEZE-M DEB (TANK) 4.2 22:35:06 17° SW 22:38:58 55° SE 22:54:58 10° ENE
CZ-2D R/B 2.2 22:33:41 10° NNE 22:39:04 69° WNW 22:43:21 16° SSW
Cosmos 1954 Rocket 4.0 22:34:06 10° NNW 22:39:23 75° WSW 22:44:40 10° SSE
SL-14 R/B 3.3 22:36:40 16° S 22:39:45 81° E 22:43:47 10° NNE
ISS -2.6 22:37:07 10° W 22:39:49 22° SSW 22:42:29 10° SSE
Lacrosse 4 Rocket 1.5 22:37:55 18° SW 22:41:10 86° NW 22:45:35 10° NE
Cosmos 2263 Rocket 2.2 22:37:24 10° NNW 22:43:06 90° WSW 22:48:48 10° SSE
AQUA 3.8 22:40:07 10° NNE 22:44:55 83° WNW 22:48:58 14° SSW
NPP 3.7 22:39:38 10° NNE 22:45:03 74° WNW 22:49:38 14° SSW
DELTA 2 DEB (DPAF) 4.1 22:42:03 10° S 22:46:30 76° WSW 22:51:00 10° NNW
ADEOS Rocket 3.6 22:39:12 10° SSE 22:46:53 88° WSW 22:54:44 10° NNW
SeaSat 1 3.8 22:43:07 10° NNE 22:47:25 31° NW 22:51:43 10° WSW
CZ-4C R/B 3.7 22:43:27 10° SSE 22:47:38 70° ENE 22:51:37 10° N
Cosmos 2322 Rocket 4.3 22:43:49 10° SSE 22:47:56 21° E 22:52:05 10° NE
Cosmos 2056 Rocket 3.5 22:46:13 15° SSW 22:50:29 86° ESE 22:55:41 10° NNE
Cosmos 1455 4.2 22:47:23 10° N 22:50:49 30° ENE 22:54:16 10° SE
SL-19 R/B 4.2 22:46:56 10° NNE 22:52:33 76° WNW 22:57:20 13° SSW
Cosmos 1140 Rocket 4.3 22:51:52 10° NW 22:56:28 32° WSW 23:00:48 11° SSW
Iridium 2 3.7 22:55:58 13° SSW 22:59:21 74° W 23:03:10 10° N
USA 281 4.1 22:55:42 12° SSW 23:00:46 29° WSW 23:06:24 10° NW
Cosmos 405 2.9 22:57:45 10° NNW 23:01:16 73° W 23:04:45 10° S
Lacrosse 5 2.7 22:57:17 10° W 23:02:15 51° N 23:07:14 10° ENE
Cosmos 1241 Rocket 4.5 22:55:52 10° NW 23:02:24 74° SW 23:08:45 10° SSE
Cosmos 1340 2.7 22:58:55 11° S 23:02:29 79° E 23:06:16 10° NNE
BREEZE-M DEB (TANK) 3.6 23:01:53 13° SSW 23:03:28 17° SSE 23:05:08 10° ESE
Cosmos 1371 Rocket 4.1 22:59:07 14° SW 23:03:41 70° WNW 23:08:53 10° NNE
USA 215 4.3 23:00:46 10° S 23:05:29 21° SW 23:10:14 10° WNW
Cosmos 1850 Rocket 4.3 23:00:30 10° NNW 23:05:53 78° ENE 23:11:14 10° SSE
Cosmos 2228 3.0 23:01:41 10° NNW 23:05:59 87° W 23:10:19 10° S
IKONOS-2 4.5 23:03:21 10° S 23:07:37 72° WSW 23:11:54 10° NNW
USA 276 2.3 23:04:39 10° W 23:07:45 48° SSW 23:10:50 10° ESE
SL-16 R/B 3.4 23:03:39 12° SSW 23:08:45 31° W 23:14:14 10° NNW
Meteor 1-24 Rocket 3.7 23:03:18 10° S 23:08:47 84° E 23:14:09 10° NNE
Spot 1 4.4 23:05:42 10° S 23:10:31 76° WSW 23:15:38 10° NNW
CENTAUR R/B 4.2 23:07:57 10° SSE 23:12:48 26° ESE 23:18:21 10° ENE
Cosmos 1697 Rocket 3.3 23:07:56 11° SW 23:13:11 48° NW 23:18:38 10° NNE
IRS-1D 3.7 23:07:55 10° NNE 23:13:19 84° WNW 23:18:40 10° SSW
Cosmos 1726 Rocket 3.7 23:09:56 10° N 23:14:21 78° ENE 23:18:46 10° SSE
Cosmos 1346 Rocket 4.1 23:10:46 10° SSE 23:14:22 37° E 23:18:02 10° NNE
Meteor 1-28 Rocket 3.5 23:11:29 10° S 23:15:04 47° W 23:18:42 10° NNW
Cosmos 1464 Rocket 4.1 23:09:04 10° N 23:15:17 85° ENE 23:21:31 10° S
Cosmos 1606 Rocket 3.6 23:11:05 10° NNW 23:15:31 83° W 23:19:58 10° S
Cosmos 1741 Rocket 4.0 23:12:52 10° NNW 23:18:08 89° WSW 23:23:22 10° SSE
Cosmos 2058 Rocket 3.9 23:14:01 10° N 23:18:30 56° ENE 23:22:56 10° SSE
Cosmos 1980 Rocket 2.4 23:21:15 10° SW 23:26:54 65° NW 23:32:33 10° NNE
Cosmos 2034 Rocket 4.3 23:20:55 10° N 23:27:19 77° ENE 23:33:36 10° SSE
IRS-1C 4.4 23:24:41 10° NNE 23:30:03 70° ESE 23:35:22 10° S
CZ-4B R/B 4.0 23:25:36 10° NNE 23:30:34 60° ESE 23:35:39 10° S
USA 32 4.3 23:27:04 10° N 23:32:21 74° E 23:37:36 10° SSE
IDEFIX/ARIANE 42P 2.7 23:27:36 10° NNE 23:32:54 87° WNW 23:38:11 10° SSW
Cosmos 2227 4.5 23:28:27 10° NW 23:33:52 47° WSW 23:39:12 10° S
ARIANE 5 R/B 3.0 23:29:50 10° NNE 23:34:58 63° ESE 23:39:59 10° S
Cosmos 389 Rocket 2.5 23:33:40 10° NNW 23:37:11 85° ENE 23:40:39 10° SSE
Meteor 2-5 Rocket 4.1 23:34:07 10° SW 23:39:36 50° WNW 23:45:02 10° N
Cosmos 1420 Rocket 4.3 23:38:09 10° SW 23:43:16 58° WNW 23:48:25 10° NNE
CZ-2D R/B 4.3 23:39:24 10° NNE 23:43:45 56° E 23:48:07 10° S
GP-B 4.4 23:42:19 10° NNW 23:46:00 26° WNW 23:49:40 10° SW
